Date,TemperatureHighF,TemperatureAvgF,TemperatureLowF,DewpointHighF,DewpointAvgF,DewpointLowF,HumidityHigh,HumidityAvg,HumidityLow,PressureMaxIn,PressureMinIn,WindSpeedMaxMPH,WindSpeedAvgMPH,GustSpeedMaxMPH,PrecipitationSumIn
2012-11-14,65,57,43,-100,-100,-100,0,0,100,0.00,40.00,0,-999,0,0.00
2012-11-15,63,50,37,-100,-100,-100,0,0,100,0.00,40.00,0,-999,0,0.00
2012-11-16,54,48,42,-100,-100,-100,0,0,100,0.00,40.00,0,-999,0,0.00
2012-11-17,60,54,49,-100,-100,-100,0,0,100,0.00,40.00,0,-999,0,0.00
2012-11-18,58,52,43,-100,-100,-100,0,0,100,0.00,40.00,0,-999,0,0.00
2012-11-19,63,54,49,-100,-100,-100,0,0,100,0.00,40.00,0,-999,0,0.00
2012-11-20,62,55,49,-100,-100,-100,0,0,100,0.00,40.00,0,-999,0,0.00
2012-11-21,64,55,46,-100,-100,-100,0,0,100,0.00,40.00,0,-999,0,0.00
2012-11-22,62,50,41,-100,-100,-100,0,0,100,0.00,40.00,0,-999,0,0.00
2012-11-23,62,51,36,-100,-100,-100,0,0,100,0.00,40.00,0,-999,0,0.00
2012-11-24,63,51,37,-100,-100,-100,0,0,100,0.00,40.00,0,-999,0,0.00
2012-11-25,62,49,37,-100,-100,-100,0,0,100,0.00,40.00,0,-999,0,0.00
2012-11-26,55,43,37,-100,-100,-100,0,0,100,0.00,40.00,0,-999,0,0.00
2012-11-27,59,48,40,-100,-100,-100,0,0,100,0.00,40.00,0,-999,0,0.00
2012-11-28,58,50,44,-100,-100,-100,0,0,100,0.00,40.00,0,-999,0,0.00
2012-11-29,57,53,47,-100,-100,-100,0,0,100,0.00,40.00,0,-999,0,0.00
2012-11-30,59,55,53,-100,-100,-100,0,0,100,0.00,40.00,0,-999,0,0.00
2012-12-1,58,55,51,-100,-100,-100,0,0,100,0.00,40.00,0,-999,0,0.00
2012-12-2,58,52,43,-100,-100,-100,0,0,100,0.00,40.00,0,-999,0,0.00
2012-12-3,57,48,39,-100,-100,-100,0,0,100,0.00,40.00,0,-999,0,0.00
2012-12-4,56,52,47,-100,-100,-100,0,0,100,0.00,40.00,0,-999,0,0.00
2012-12-5,54,52,51,-100,-100,-100,0,0,100,0.00,40.00,0,-999,0,0.00
2012-12-6,57,52,45,-100,-100,-100,0,0,100,0.00,40.00,0,-999,0,0.00
2012-12-7,58,45,36,-100,-100,-100,0,0,100,0.00,40.00,0,-999,0,0.00
2012-12-8,54,41,36,-100,-100,-100,0,0,100,0.00,40.00,0,-999,0,0.00
2012-12-9,62,52,43,-100,-100,-100,0,0,100,0.00,40.00,0,-999,0,0.00
2012-12-10,61,50,40,-100,-100,-100,0,0,100,0.00,40.00,0,-999,0,0.00
2012-12-11,51,45,36,-100,-100,-100,0,0,100,0.00,40.00,0,-999,0,0.00
2012-12-12,53,45,37,-100,-100,-100,0,0,100,0.00,40.00,0,-999,0,0.00
2012-12-13,48,39,32,-100,-100,-100,0,0,100,0.00,40.00,0,-999,0,0.00
2012-12-14,45,37,29,-100,-100,-100,0,0,100,0.00,40.00,0,-999,0,0.00
2012-12-15,40,35,29,-100,-100,-100,0,0,100,0.00,40.00,0,-999,0,0.00
2012-12-16,48,43,38,-100,-100,-100,0,0,100,0.00,40.00,0,-999,0,0.00
2012-12-17,56,48,40,-100,-100,-100,0,0,100,0.00,40.00,0,-999,0,0.00
2012-12-18,49,41,33,-100,-100,-100,0,0,100,0.00,40.00,0,-999,0,0.00
2012-12-19,47,35,28,-100,-100,-100,0,0,100,0.00,40.00,0,-999,0,0.00
2012-12-20,51,37,27,-100,-100,-100,0,0,100,0.00,40.00,0,-999,0,0.00
2012-12-21,45,41,37,-100,-100,-100,0,0,100,0.00,40.00,0,-999,0,0.00
2012-12-22,52,46,43,-100,-100,-100,0,0,100,0.00,40.00,0,-999,0,0.00
2012-12-23,47,46,44,-100,-100,-100,0,0,100,0.00,40.00,0,-999,0,0.00
2012-12-24,48,42,35,-100,-100,-100,0,0,100,0.00,40.00,0,-999,0,0.00
2012-12-25,43,40,35,-100,-100,-100,0,0,100,0.00,40.00,0,-999,0,0.00
2012-12-26,47,42,36,-100,-100,-100,0,0,100,0.00,40.00,0,-999,0,0.00
2012-12-27,49,40,36,-100,-100,-100,0,0,100,0.00,40.00,0,-999,0,0.00
2012-12-28,40,35,30,-100,-100,-100,0,0,100,0.00,40.00,0,-999,0,0.00
2012-12-29,48,41,35,-100,-100,-100,0,0,100,0.00,40.00,0,-999,0,0.00
2012-12-30,48,40,32,-100,-100,-100,0,0,100,0.00,40.00,0,-999,0,0.00
2012-12-31,47,38,31,-100,-100,-100,0,0,100,0.00,40.00,0,-999,0,0.00
2013-1-1,47,39,29,-100,-100,-100,0,0,100,0.00,40.00,0,-999,0,0.00